Regional Weather Roundup
Issued by NWS Newport/Morehead, NC

Current Version | Previous Version | Graphics & Text | Print | Product List | Glossary On
Versions: 1 2 3 4 5 6 7 8 9 10 11 12 13 14 15 16 17 18 19 20 21 22 23 24 25 26 27 28 29 30 31 32 33 34 35 36 37 38 39 40 41 42 43 44 45 46 47 48 49 50
000 ASUS42 KMHX 251422 RWRMHX WEATHER ROUNDUP FOR EASTERN NORTH CAROLINA NATIONAL WEATHER SERVICE NEWPORT/MOREHEAD CITY NC 1000 AM EDT SAT OCT 25 2014 NOTE: "FAIR" INDICATES FEW OR NO CLOUDS BELOW 12,000 FEET WITH NO SIGNIFICANT WEATHER AND/OR OBSTRUCTIONS TO VISIBILITY NCZ015>017-031-032-045>047-102-103-251500- NORTH COAST CITY SKY/WX TMP DP RH WIND PRES REMARKS EDENTON SUNNY 59 49 70 N6 29.99F ELIZABETH CITY SUNNY 61 49 64 N6 29.99S KITTY HAWK SUNNY 64 52 66 NW5 29.96S MANTEO SUNNY 61 52 72 NW6 29.98S $$ NCZ045>047-081-094-103-104-251500- CENTRAL COAST CITY SKY/WX TMP DP RH WIND PRES REMARKS FRISCO SUNNY 63 56 78 N5 29.98S SWANQUARTER N/A 63 N/A N/A NE7 29.94F $$ NCZ095-097-098-100-101-251500- SOUTHERN COAST CITY SKY/WX TMP DP RH WIND PRES REMARKS BEAUFORT SUNNY 62 51 67 N6 29.99F CEDAR ISLAND N/A 64 N/A N/A NW2 30.03S JACKSONVILLE SUNNY 60 49 66 N9 30.00S PINEY ISLAND SUNNY 67 49 52 N3 29.99S WILMINGTON SUNNY 60 51 72 CALM 30.01S $$ NCZ011>013-027>030-043-044-078>080-089-090>093-098-251500- COASTAL PLAIN CITY SKY/WX TMP DP RH WIND PRES REMARKS AHOSKIE SUNNY 57 45 62 N6 30.00F CLINTON SUNNY 56 48 74 CALM 30.01F ELIZABETHTOWN SUNNY 56 47 70 N3 30.01F GOLDSBORO SUNNY 57 53 87 VRB2 29.99F GREENVILLE SUNNY 54 52 94 CALM 30.02F HAVELOCK SUNNY 62 51 67 N7 30.01S KENANSVILLE SUNNY 57 48 72 CALM 30.01S KINSTON SUNNY 57 50 77 NE3 30.01S NEW BERN SUNNY 60 50 69 CALM 30.01S RICHLANDS SUNNY 59 46 63 NE6 30.01F ROCKY MOUNT SUNNY 58 47 66 VRB6 30.00F WASHINGTON SUNNY 58 47 67 CALM 30.00F WHITEVILLE SUNNY 59 49 68 CALM 30.00F $$ AMZ130-135-150-152-154-156-158-170-250-252-270-ANZ085-086-088-633-658-670-251500- MARINE OBSERVATIONS STATION/POSITION TIME TEMP WIND PRES WAVE SWELL AIR SEA DIR/SP/G HT/PER HT/PER (UTC) (F) (DEG/KT/KT) (MB) (FT/S) (FT/S) CHESAPEAKE LIGHT 1400 61 360/ 13/ 13 1015.5 64 E VA BEACH 1400 62 66 350/ 8/ 12 1013.8 3/ 5 3/ 5 DUCK 1400 60 66 320/ 7/ 9 1014.3 2 E DUCK 1400 N/A 3/ 9 2/11 10 NE DUCK 1400 67 N/A 3/ 9 2/11 OREGON INLET 1400 62 64 300/ 5/ 7 1014.9 13E OREGON INLT 1400 69 N/A 4/ 9 2/11 HATTERAS CG 1400 61 64 350/ 8/ 9 1015.3 DIAMOND BUOY 1400 65 350/ 8/ 10 1015.1 3/ 8 3/ 8 17 S OCRACOKE 1300 VRB 10/ 14 1015.2 CAPE LOOKOUT 1400 63 10/ 4/ 6 1015.4 BEAUFORT LAB 1400 60 67 350/ 6/ 7 1014.8 30 SE NEW RIVER 1400 65 74 340/ 8/ 10 1015.2 3/ 9 2/ 9 5 SE WRIGHTSVLE 1400 59 71 340/ 10/ 10 N/A 225 S CAPE HAT 1311 72 77 20/ 12/ 16 1013.8 3/ 8 3/ 8 41 SE CHARLESTON 1400 68 78 340/ 10/ 14 1015.6 3/10 3/10 $$

USA.gov is the U.S. government's official web portal to all federal, state and local government web resources and services.